sat.trackr.live / text

‹ back to catalog

STARLINK-34337

NORAD 64223 · 2025-117W

PAYLOAD ACTIVE UNKNOWN

§ Identity

Operator
Country
US
Launch date
2025-05-31
Launch site
AFWTR
Launch vehicle
Mass (kg)
RCS (m²)

Purposes: comms

External: N2YO · Heavens-Above · Gunter

§ Orbital elements

Epoch: 2026-09-20T11:27:56.372256Z

Period
93.85 min
Inclination
53.1594°
Eccentricity
0.0000521
Mean motion
15.34410816 rev/d
Perigee alt
462.3 km
Apogee alt
463.0 km
Semi-major
6,840.8 km
B*
5.8892e-4
RAAN
211.6424°
Arg perigee
62.7731°
Mean anomaly
297.3324°
Rev number
7,439

§ Raw data

STARLINK-343371 64223U 25117W   26263.47773579  .00019580  00000+0  58892-3 0  99982 64223  53.1594 211.6424 0000521  62.7731 297.3324 15.34410816 74396

JSON: /api/v1/satellites/64223 · /tle

For live sub-satellite position, see the globe view (requires WebGL).

§ Visibility from observer

Set your observer location to see the next 7 days of passes ≥ 10°. The values pass through the URL so the page stays shareable.

No JS? Fill the form by hand. The geolocation button needs JavaScript.